15 daagse weersverwachting Donostia / San SebastiŠn (ES)

  • Overzicht
  • Per uur
  • 15 dagen
  • Extra
  • Vergelijk
  • Kaarten
  • Dagkaart
  • Meer »
  • Info
  • Statistieken
  • Directe link
    Temp 6h Neerslag Wind  
 07:58     17:46    Daglengte: 9:48 Vandaag
01:00
11°
2.0 mm
5
07:00
10°
8.7 mm
5
13:00
12°
12.8 mm
7
19:00
12°
15.3 mm
4
 08:00     17:45    Daglengte: 9:45 Morgen
01:00
11°
2.5 mm
2
07:00
11°
29.7 mm
3
13:00
11°
31.6 mm
2
19:00
11°
13.3 mm
4
 08:01     17:44    Daglengte: 9:43 Donderdag 14 Nov
01:00
11°
12.3 mm
9
07:00
46.5 mm
7
13:00
11°
16.9 mm
7
19:00
76.1 mm
6
Locatie info
Region: Basque Country
Latitude: 43.3128°N
Longitude: -1.9750°E
17 masl
Temp/Neerslag /Baro Onweer/Dauwpunt
    Temp Baro 1h Neerslag Dauwpunt Wind UV Bewolking  
 07:58     17:46    Daglengte: 9:48 Vandaag
01:00
11°
1017.6 hPa 2.0 mm
48%
9.6°
5
Windvlaag: -1 km/h
44%
02:00
11°
1017.0 hPa 1.0 mm
82%
9.6°
5
Windvlaag: -1 km/h
46%
03:00
11°
1016.7 hPa 1.1 mm
81%
9.6°
5
Windvlaag: 2.1 km/h
62%
04:00
11°
1016.0 hPa 1.8 mm
81%
9.8°
5
Windvlaag: 1.8 km/h
55%
05:00
11°
1015.7 hPa 1.4 mm
81%
9.7°
5
Windvlaag: 1.4 km/h
65%
06:00
11°
1015.5 hPa 1.7 mm
82%
9.8°
6
Windvlaag: 1.2 km/h
81%
07:00
10°
1015.2 hPa 1.6 mm
82%
10.0°
5
Windvlaag: 1.2 km/h
86%
08:00
11°
1015.0 hPa 1.8 mm
82%
9.9°
6
Windvlaag: 2 km/h
80%
09:00
11°
1015.2 hPa 2.1 mm
82%
9.8°
5
Windvlaag: 1.7 km/h
77%
10:00
11°
1015.3 hPa 2.3 mm
82%
10.4°
5
Windvlaag: 1.6 km/h
76%
11:00
11°
1014.9 hPa 2.3 mm
82%
10.2°
6
Windvlaag: 1 km/h
67%
12:00
12°
1014.6 hPa 2.2 mm
82%
10.1°
7
Windvlaag: 1.1 km/h
74%
13:00
12°
1013.7 hPa 2.1 mm
82%
10.0°
7
Windvlaag: 1.3 km/h
71%
14:00
12°
1013.0 hPa 2.1 mm
82%
9.5°
7
Windvlaag: 0.8 km/h
72%
15:00
12°
1012.4 hPa 2.1 mm
82%
9.5°
7
Windvlaag: 0.9 km/h
74%
16:00
12°
1011.9 hPa 2.8 mm
82%
9.8°
7
Windvlaag: 1 km/h
75%
17:00
12°
1011.4 hPa 2.7 mm
82%
9.8°
6
Windvlaag: 1.2 km/h
80%
18:00
12°
1010.8 hPa 2.9 mm
82%
10.3°
5
Windvlaag: 1.2 km/h
85%
19:00
12°
1010.3 hPa 2.7 mm
82%
10.1°
4
Windvlaag: 1.2 km/h
78%
20:00
11°
1009.3 hPa 2.5 mm
81%
9.9°
3
Windvlaag: 1.5 km/h
74%
21:00
11°
1008.5 hPa
77%
9.6°
3
Windvlaag: 2.2 km/h
84%
22:00
11°
1007.9 hPa
77%
9.4°
3
Windvlaag: 2.5 km/h
89%
23:00
11°
1007.1 hPa
82%
9.4°
3
Windvlaag: 2.5 km/h
90%
 08:00     17:45    Daglengte: 9:45 Morgen
00:00
11°
1006.2 hPa
76%
9.3°
3
Windvlaag: 2.7 km/h
91%
01:00
11°
1005.2 hPa
78%
9.5°
2
Windvlaag: 2.7 km/h
91%
02:00
11°
1004.2 hPa 5.0 mm
82%
9.8°
2
Windvlaag: 2.4 km/h
91%
03:00
11°
1003.5 hPa 5.7 mm
82%
10.0°
2
Windvlaag: 2 km/h
91%
04:00
11°
1003.1 hPa 4.6 mm
82%
10.1°
2
Windvlaag: 1.8 km/h
91%
05:00
11°
1003.1 hPa 4.8 mm
82%
10.4°
2
Windvlaag: 2 km/h
91%
06:00
11°
1003.8 hPa 4.9 mm
82%
9.8°
3
Windvlaag: 2 km/h
91%
07:00
11°
1005.0 hPa 4.8 mm
82%
9.7°
3
Windvlaag: 1.5 km/h
91%
08:00
11°
1006.5 hPa 7.5 mm
82%
9.8°
3
Windvlaag: 1.7 km/h
91%
09:00
11°
1008.2 hPa 6.1 mm
82%
9.4°
4
Windvlaag: 1.6 km/h
90%
10:00
11°
1009.3 hPa 5.1 mm
78%
9.0°
3
Windvlaag: 1.1 km/h
87%
11:00
11°
1009.9 hPa 6.5 mm
77%
8.9°
2
Windvlaag: -0.5 km/h
80%
12:00
11°
1010.4 hPa 6.5 mm
76%
8.6°
2
Windvlaag: 1.2 km/h
71%
13:00
11°
1010.3 hPa
70%
8.8°
2
Windvlaag: 1.2 km/h
51%
14:00
12°
1010.7 hPa
81%
8.6°
3
Windvlaag: 1.3 km/h
51%
15:00
12°
1010.5 hPa 6.6 mm
81%
7.6°
5
Windvlaag: 1.2 km/h
61%
16:00
12°
1010.5 hPa 6.8 mm
82%
7.3°
6
Windvlaag: -0 km/h
53%
17:00
11°
1010.1 hPa
80%
7.5°
4
Windvlaag: 0.2 km/h
44%
18:00
11°
1009.7 hPa
78%
8.0°
4
Windvlaag: 1.4 km/h
63%
19:00
11°
1009.1 hPa
75%
8.7°
4
Windvlaag: 2 km/h
56%
20:00
10°
1008.1 hPa
32%
8.4°
4
Windvlaag: 2.7 km/h
64%
21:00
10°
1006.9 hPa
25%
7.8°
4
Windvlaag: 3 km/h
81%
22:00
10°
1005.6 hPa
25%
8.4°
5
Windvlaag: 3.2 km/h
96%
23:00
10°
1004.1 hPa
100%
8.1°
5
Windvlaag: 3.9 km/h
98%
 08:01     17:44    Daglengte: 9:43 Donderdag 14 Nov
00:00
11°
1003.0 hPa 6.8 mm
100%
7.8°
5
Windvlaag: 3.9 km/h
100%
01:00
11°
1003.4 hPa 5.5 mm
100%
8.5°
9
Windvlaag: 3.9 km/h
100%
02:00
Voelt als: 5.6°
1003.9 hPa 7.0 mm
100%
8.8°
8
Windvlaag: 2.9 km/h
100%
03:00
Voelt als: 4.9°
1003.7 hPa 8.5 mm
100%
8.0°
7
Windvlaag: 3.2 km/h
100%
04:00
Voelt als: 4.6°
1002.8 hPa 7.5 mm
100%
7.9°
6
Windvlaag: 2.2 km/h
100%
05:00
Voelt als: 4.6°
1002.2 hPa 7.0 mm
100%
7.8°
6
Windvlaag: 2.3 km/h
100%
06:00
Voelt als: 4.0°
1001.7 hPa 6.9 mm
97%
6.5°
7
Windvlaag: 3 km/h
99%
07:00
Voelt als: 3.7°
1001.3 hPa 9.6 mm
89%
6.1°
7
Windvlaag: 2.6 km/h
88%
08:00
Voelt als: 3.7°
1000.6 hPa
84%
5.5°
6
Windvlaag: 1.3 km/h
32%
09:00
Voelt als: 4.1°
1000.2 hPa
36%
5.3°
6
Windvlaag: 2.1 km/h
73%
10:00
Voelt als: 5.7°
999.5 hPa
28%
4.9°
6
Windvlaag: 1.6 km/h
88%
11:00
10°
Voelt als: 7.0°
998.5 hPa
83%
4.9°
6
Windvlaag: 1.8 km/h
90%
12:00
10°
998.1 hPa 16.9 mm
100%
4.7°
6
Windvlaag: 1.2 km/h
98%
13:00
11°
996.8 hPa
94%
4.1°
7
Windvlaag: 1.3 km/h
93%
14:00
11°
995.7 hPa 16.9 mm
34%
4.1°
7
Windvlaag: 1.2 km/h
87%
15:00
11°
994.7 hPa 16.9 mm
34%
3.9°
6
Windvlaag: 1.3 km/h
88%
16:00
11°
994.7 hPa 10.2 mm
98%
4.6°
5
Windvlaag: 1.3 km/h
91%
17:00
Voelt als: 6.5°
994.9 hPa 10.7 mm
100%
7.3°
5
Windvlaag: 1.1 km/h
88%
18:00
Voelt als: 5.3°
995.4 hPa 10.4 mm
99%
6.5°
6
Windvlaag: 1.2 km/h
88%
19:00
Voelt als: 4.7°
995.8 hPa 10.9 mm
100%
7.3°
6
Windvlaag: 1 km/h
63%
20:00
Voelt als: 3.9°
996.6 hPa 17.2 mm
100%
7.1°
8
Windvlaag: 7.8 km/h
89%
21:00
Voelt als: 4.0°
997.4 hPa 17.9 mm
100%
7.6°
8
Windvlaag: 8.2 km/h
97% warningclass
22:00
Voelt als: 4.4°
997.8 hPa 19.4 mm
100%
7.8°
8
Windvlaag: 8.6 km/h
95% warningclass
23:00
Voelt als: 4.4°
998.2 hPa 19.6 mm
100%
7.8°
8
Windvlaag: 9.3 km/h
93% warningclass
 08:02     17:43    Daglengte: 9:41 Vrijdag 15 Nov
00:00
Voelt als: 3.9°
998.7 hPa 19.8 mm
100%
7.6°
9
Windvlaag: 9.9 km/h
89%
Temp/Neerslag /Baro Onweer/Dauwpunt
    Temp Baro Neerslag Dauwpunt Wind Bewolking  
 07:58     17:46    Daglengte: 9:48 Vandaag
01:00
11°
1017.6 hPa 2.0 mm 9.6°
5
44%
04:00
11°
1016.0 hPa 3.9 mm 9.8°
5
55%
07:00
10°
1015.2 hPa 4.7 mm 10.0°
5
86%
10:00
11°
1015.3 hPa 6.2 mm 10.4°
5
76%
13:00
12°
1013.7 hPa 6.6 mm 10.0°
7
71%
16:00
12°
1011.9 hPa 7.0 mm 9.8°
7
75%
19:00
12°
1010.3 hPa 8.3 mm 10.1°
4
78%
22:00
11°
1007.9 hPa 2.5 mm 9.4°
3
89%
 08:00     17:45    Daglengte: 9:45 Morgen
01:00
11°
1005.2 hPa   9.5°
2
91%
04:00
11°
1003.1 hPa 15.3 mm 10.1°
2
91%
07:00
11°
1005.0 hPa 14.4 mm 9.7°
3
91%
10:00
11°
1009.3 hPa 18.6 mm 9.0°
3
87%
13:00
11°
1010.3 hPa 13.0 mm 8.8°
2
51%
16:00
12°
1010.5 hPa 13.3 mm 7.3°
6
53%
19:00
11°
1009.1 hPa   8.7°
4
56%
22:00
10°
1005.6 hPa   8.4°
5
96%
 08:01     17:44    Daglengte: 9:43 Donderdag 14 Nov
01:00
11°
1003.4 hPa 12.3 mm 8.5°
9
100%
04:00
Voelt als: 4.6°
1002.8 hPa 23.0 mm 7.9°
6
100%
07:00
Voelt als: 3.7°
1001.3 hPa 23.5 mm 6.1°
7
88%
10:00
Voelt als: 5.7°
999.5 hPa   4.9°
6
88%
13:00
11°
996.8 hPa 16.9 mm 4.1°
7
93%
16:00
11°
994.7 hPa 44.0 mm 4.6°
5
91%
19:00
Voelt als: 4.7°
995.8 hPa 32.1 mm 7.3°
6
63%
22:00
Voelt als: 4.4°
997.8 hPa 54.5 mm 7.8°
8
95% warningclass
 08:02     17:43    Daglengte: 9:41 Vrijdag 15 Nov
01:00
Voelt als: 3.4°
999.1 hPa 50.8 mm 7.3°
8
90%
04:00
Voelt als: 2.4°
1000.7 hPa 30.3 mm 6.3°
10
89%
07:00
Voelt als: 2.3°
1000.4 hPa 31.2 mm 5.9°
10
92%
10:00
Voelt als: 3.5°
1000.9 hPa 30.7 mm 6.6°
9
90%
13:00
Voelt als: 4.5°
1001.3 hPa 31.5 mm 7.4°
8
88%
16:00
Voelt als: 4.5°
1003.5 hPa 33.8 mm 6.6°
8
90%
19:00
Voelt als: 5.2°
1006.0 hPa 35.6 mm 5.8°
7
91%
22:00
Voelt als: 4.5°
1007.2 hPa 36.0 mm 6.8°
7
91%
 08:04     17:42    Daglengte: 9:38 Zaterdag 16 Nov
01:00
Voelt als: 3.5°
1008.3 hPa 70.2 mm 7.6°
8
92%
04:00
Voelt als: 3.5°
1008.9 hPa 70.4 mm 7.8°
8
93%
07:00
Voelt als: 3.8°
1009.4 hPa 40.7 mm 8.2°
9
93%
10:00
Voelt als: 4.4°
1010.7 hPa 43.3 mm 8.1°
10
87%
13:00
Voelt als: 5.3°
1011.7 hPa 42.5 mm 8.1°
11
82%
16:00
Voelt als: 4.6°
1012.8 hPa 45.5 mm 8.2°
11
75%
19:00
Voelt als: 4.1°
1014.0 hPa 45.5 mm 8.3°
11
69%
22:00
Voelt als: 4.0°
1014.4 hPa 47.2 mm 7.9°
10
81%
 08:05     17:41    Daglengte: 9:36 Zondag 17 Nov
01:00
Voelt als: 3.9°
1014.6 hPa 47.2 mm 7.6°
9
92%
04:00
Voelt als: 3.9°
1013.1 hPa 92.7 mm 6.8°
8
92%
07:00
Voelt als: 3.9°
1011.7 hPa 46.9 mm 5.8°
7
93%
10:00
Voelt als: 6.2°
1009.4 hPa 92.8 mm 6.0°
7
93%
13:00
11°
1007.0 hPa 47.5 mm 6.1°
7
93%
16:00
10°
Voelt als: 6.9°
1005.2 hPa 53.1 mm 6.3°
6
93%
19:00
Voelt als: 6.1°
1003.6 hPa 102.0 mm 6.6°
5
93%
22:00
Voelt als: 6.0°
1003.3 hPa 53.0 mm 7.3°
6
92%
 08:06     17:41    Daglengte: 9:35 Maandag 18 Nov
01:00
Voelt als: 5.8°
1002.8 hPa 55.2 mm 8.0°
6
91%
04:00
Voelt als: 5.9°
1002.8 hPa 54.7 mm 7.7°
6
92%
07:00
Voelt als: 6.2°
1003.0 hPa 108.4 mm 7.4°
5
91%
10:00
Voelt als: 8.0°
1004.3 hPa 54.8 mm 7.3°
3
91%
13:00
10°
1005.5 hPa 108.5 mm 7.2°
1
91%
16:00
10°
Voelt als: 8.2°
1007.2 hPa 108.5 mm 6.7°
3
71%
19:00
Voelt als: 6.5°
1009.1 hPa 108.8 mm 6.3°
4
57%
22:00
Voelt als: 6.2°
1010.3 hPa   6.1°
4
73%
 08:07     17:40    Daglengte: 9:33 Dinsdag 19 Nov
01:00
Voelt als: 6.2°
1011.4 hPa 221.0 mm 5.7°
4
86%
07:00
Voelt als: 5.1°
1012.9 hPa 221.2 mm 6.9°
5
89%
13:00
11°
1014.3 hPa 222.1 mm 5.7°
5
49%
19:00
10°
Voelt als: 9.1°
1014.6 hPa 223.5 mm 6.7°
2
43%
 08:09     17:39    Daglengte: 9:30 Woensdag 20 Nov
01:00
Voelt als: 4.7°
1014.5 hPa 223.7 mm 5.1°
4
84%
07:00
Voelt als: 4.0°
1012.9 hPa 223.7 mm 4.4°
5
0%
13:00
12°
1011.1 hPa 223.7 mm 3.9°
6
90%
19:00
10°
1009.4 hPa 223.7 mm 5.3°
5
61%
 08:10     17:38    Daglengte: 9:28 Donderdag 21 Nov
01:00
10°
1008.2 hPa 223.7 mm 5.6°
7
40%
07:00
10°
Voelt als: 6.4°
1006.6 hPa 223.7 mm 6.3°
8
80%
13:00
13°
1006.1 hPa 224.1 mm 7.0°
8
82%
19:00
12°
1007.1 hPa 0.5 mm 8.2°
3
64%
 08:11     17:38    Daglengte: 9:27 Vrijdag 22 Nov
01:00
11°
1007.4 hPa 0.7 mm 7.6°
5
58%
07:00
10°
1007.2 hPa 1.0 mm 7.3°
4
55%
13:00
14°
1007.9 hPa 0.6 mm 8.8°
4
52%
19:00
12°
1008.6 hPa 0.6 mm 8.1°
3
58%
 08:12     17:37    Daglengte: 9:25 Zaterdag 23 Nov
01:00
10°
1010.3 hPa 1.0 mm 7.5°
4
52%
07:00
10°
Voelt als: 7.7°
1011.0 hPa 0.7 mm 7.0°
4
46%
13:00
14°
1011.8 hPa 0.4 mm 8.5°
3
45%
19:00
12°
1012.3 hPa 1.0 mm 8.3°
2
55%
 08:14     17:36    Daglengte: 9:22 Zondag 24 Nov
01:00
11°
1012.9 hPa 1.1 mm 7.9°
3
60%
07:00
10°
1012.2 hPa 0.6 mm 7.7°
3
55%
13:00
15°
1011.9 hPa 0.4 mm 9.7°
3
56%
19:00
12°
1011.4 hPa 0.9 mm 9.5°
2
51%
 08:15     17:36    Daglengte: 9:21 Maandag 25 Nov
01:00
11°
1012.1 hPa 1.9 mm 8.9°
3
59%
07:00
11°
1012.2 hPa 1.3 mm 8.1°
3
53%
13:00
14°
1013.2 hPa 0.6 mm 9.4°
3
51%
19:00
12°
1013.9 hPa 0.8 mm 9.0°
1
57%
 08:16     17:35    Daglengte: 9:19 Dinsdag 26 Nov
01:00
11°
1014.4 hPa 1.0 mm 8.2°
2
56%
07:00
10°
1013.8 hPa 1.5 mm 7.8°
2
56%
13:00
14°
1014.2 hPa 1.2 mm 8.9°
2
58%
19:00
11°
1014.5 hPa 0.6 mm 8.4°
1
56%
  CAPE Lifted Index Hail Supercell Tornado SRH 3km CL BTM PRES CL TOP PRES Swiss DWD icon SMHI TS
 07:58     17:46    Daglengte: 9:48 Vandaag
01:00 97 J/kg 7.6 K 0 % 0 % 0 % 0 m²/s² 0 0 16.84 80
02:00 82 J/kg 7.6 K 0 % 0 % 0 % 0 m²/s² 0 0 17.77 80
03:00 140 J/kg 5.8 K 0 % 0 % 0 % 0 m²/s² 0 0 9.79 80
04:00 181 J/kg 5.9 K 0 % 0 % 0 % 0 m²/s² 0 0 11.48 80
05:00 139 J/kg 6.8 K 0 % 0 % 0 % 0 m²/s² 0 0 9.86 80
06:00 100 J/kg 7.2 K 0 % 0 % 0 % 0 m²/s² 0 0 9.24 80
07:00 159 J/kg 6.2 K 0 % 0 % 0 % 0 m²/s² 0 0 6.53 80
08:00 102 J/kg 7.0 K 0 % 0 % 0 % 0 m²/s² 0 0 7.6 80
09:00 102 J/kg 7.3 K 0 % 0 % 0 % 0 m²/s² 0 0 8.62 80
10:00 243 J/kg 5.4 K 0 % 0 % 0 % 0 m²/s² 0 0 5.94 80
11:00 239 J/kg 5.6 K 0 % 0 % 0 % 0 m²/s² 0 0 6.47 80
12:00 156 J/kg 6.6 K 0 % 0 % 0 % 0 m²/s² 0 0 7.71 3
13:00 206 J/kg 5.8 K 0 % 0 % 0 % 0 m²/s² 0 0 7.3 3
14:00 148 J/kg 6.3 K 0 % 0 % 0 % 0 m²/s² 0 0 7.89 80
15:00 125 J/kg 5.9 K 0 % 0 % 0 % 0 m²/s² 0 0 7.85 61
16:00 112 J/kg 5.7 K 0 % 0 % 0 % 0 m²/s² 0 0 7.86 80
17:00 85 J/kg 5.6 K 0 % 0 % 0 % 0 m²/s² 0 0 7.97 3
18:00 125 J/kg 4.6 K 0 % 0 % 0 % 0 m²/s² 0 0 6.4 61
19:00 101 J/kg 5.0 K 0 % 0 % 0 % 0 m²/s² 0 0 5.51 80
20:00 43 J/kg 6.4 K 0 % 0 % 0 % 0 m²/s² 0 0 6.7 3
21:00 4 J/kg 7.5 K 0 % 0 % 0 % 0 m²/s² 0 0 7.71 3
22:00 0 J/kg 7.5 K 0 % 0 % 0 % 0 m²/s² 0 0 7.71 3
23:00 0 J/kg 6.4 K 0 % 0 % 0 % 0 m²/s² 0 0 6.58 3
 08:00     17:45    Daglengte: 9:45 Morgen
00:00 0 J/kg 5.2 K 0 % 0 % 0 % 0 m²/s² 0 0 5.32 3
01:00 0 J/kg 4.4 K 0 % 0 % 0 % 0 m²/s² 0 0 4.61 61
02:00 0 J/kg 2.9 K 0 % 0 % 0 % 0 m²/s² 0 0 2.93 61
03:00 0 J/kg 0.8 K 0 % 0 % 0 % 0 m²/s² 0 0 1.34 61
04:00 7 J/kg 0.2 K 0 % 0 % 0 % 0 m²/s² 0 0 0.29 61
05:00 44 J/kg 1.3 K 0 % 0 % 0 % 0 m²/s² 0 0 1.69 61
06:00 71 J/kg 3.2 K 0 % 0 % 0 % 0 m²/s² 0 0 3.5 61
07:00 104 J/kg 2.7 K 0 % 0 % 0 % 0 m²/s² 0 0 2.94 61
08:00 91 J/kg 3.0 K 0 % 0 % 0 % 0 m²/s² 0 0 3.33 61
09:00 100 J/kg 3.1 K 0 % 0 % 0 % 0 m²/s² 0 0 3.37 63
10:00 66 J/kg 4.5 K 0 % 0 % 0 % 0 m²/s² 0 0 4.83 61
11:00 63 J/kg 6.0 K 0 % 0 % 0 % 0 m²/s² 0 0 8.19 3
12:00 58 J/kg 6.9 K 0 % 0 % 0 % 0 m²/s² 0 0 12.69 3
13:00 104 J/kg 6.6 K 0 % 0 % 0 % 0 m²/s² 0 0 12.78 2
14:00 123 J/kg 6.4 K 0 % 0 % 0 % 0 m²/s² 0 0 12.58 2
15:00 79 J/kg 6.5 K 0 % 0 % 0 % 0 m²/s² 0 0 12.53 3
16:00 79 J/kg 6.2 K 0 % 0 % 0 % 0 m²/s² 0 0 13.04 3
17:00 63 J/kg 5.6 K 0 % 0 % 0 % 0 m²/s² 0 0 11.3 2
18:00 59 J/kg 5.0 K 0 % 0 % 0 % 0 m²/s² 0 0 10.55 3
19:00 52 J/kg 4.0 K 0 % 0 % 0 % 0 m²/s² 0 0 8.98 2
20:00 13 J/kg 5.1 K 0 % 0 % 0 % 0 m²/s² 0 0 9.84 2
21:00 3 J/kg 5.1 K 0 % 0 % 0 % 0 m²/s² 0 0 9.36 3
22:00 2 J/kg 4.8 K 0 % 0 % 0 % 0 m²/s² 0 0 8.85 3
23:00 0 J/kg 4.5 K 0 % 0 % 0 % 0 m²/s² 0 0 7.59 3
 08:01     17:44    Daglengte: 9:43 Donderdag 14 Nov
00:00 1 J/kg 4.4 K 0 % 0 % 0 % 0 m²/s² 0 0 5.63 61
01:00 13 J/kg 3.3 K 0 % 0 % 0 % 0 m²/s² 0 0 3.57 61
02:00 97 J/kg 2.9 K 0 % 0 % 0 % 0 m²/s² 0 0 3.29 63
03:00 39 J/kg 2.4 K 0 % 0 % 0 % 0 m²/s² 0 0 2.97 61
04:00 58 J/kg 2.1 K 0 % 0 % 0 % 0 m²/s² 0 0 2.49 61
05:00 130 J/kg 1.4 K 0 % 0 % 0 % 0 m²/s² 0 0 1.76 80
06:00 2 J/kg 2.2 K 0 % 0 % 0 % 0 m²/s² 0 0 2.68 80
07:00 13 J/kg 2.1 K 0 % 0 % 0 % 0 m²/s² 0 0 2.82 2
08:00 0 J/kg 0.8 K 0 % 0 % 0 % 0 m²/s² 0 0 1.91 0
09:00 114 J/kg 0.3 K 0 % 0 % 0 % 0 m²/s² 0 0 0.87 3
10:00 4 J/kg 1.1 K 0 % 0 % 0 % 0 m²/s² 0 0 1.67 3
11:00 17 J/kg 0.8 K 0 % 0 % 0 % 0 m²/s² 0 0 2.09 3
12:00 24 J/kg 0.5 K 0 % 0 % 0 % 0 m²/s² 0 0 1.16 3
13:00 64 J/kg -0.2 K 0 % 0 % 0 % 0 m²/s² 0 0 0.64 3
14:00 46 J/kg 0.0 K 0 % 0 % 0 % 0 m²/s² 0 0 2.19 3
15:00 123 J/kg -0.4 K 0 % 0 % 0 % 0 m²/s² 0 0 1.34 3
16:00 26 J/kg 0.0 K 0 % 0 % 0 % 0 m²/s² 0 0 1.02 61
17:00 51 J/kg -0.4 K 0 % 0 % 0 % 0 m²/s² 0 0 0.8 61
18:00 24 J/kg -0.3 K 0 % 0 % 0 % 0 m²/s² 0 0 0.87 3
19:00 27 J/kg 0.1 K 0 % 0 % 0 % 0 m²/s² 0 0 1.21 80
20:00 0 J/kg 0.5 K 0 % 0 % 0 % 0 m²/s² 0 0 2.24 80
21:00 159 J/kg -0.6 K 0 % 0 % 0 % 0 m²/s² 0 0 0.12 95
22:00 156 J/kg -0.2 K 0 % 0 % 0 % 0 m²/s² 0 0 0.34 95
23:00 363 J/kg -1.5 K 0 % 0 % 0 % 0 m²/s² 0 0 0.06 95
 08:02     17:43    Daglengte: 9:41 Vrijdag 15 Nov
00:00 493 J/kg -2.3 K 0 % 0 % 0 % 0 m²/s² 0 0 1.69 80
Temp Baro Wind Neerslag
  EWN Forecast EWN WRFDA DWD ICON FMI HIRLAM MET Norway GFSWXSIM
 07:58     17:46    Daglengte: 9:48 Vandaag
01:00 11.0° 1017.6 hPa 5.3 m/s 2.0 mm 12.4° 1015.3 hPa 6.9 m/s 1.8 mm 10.9° 1017.9 hPa 5.0 m/s 3.0 mm 11.7° 1017.0 hPa 2.6 m/s 0.0 mm 10.6° 1017.9 hPa 7.5 m/s 2.0 mm 11.0° 1018.4 hPa 4.3 m/s 10.3° 1018.0 hPa 19.0 m/s 1.3 mm
04:00 10.6° 1016.0 hPa 5.3 m/s 3.9 mm 12.0° 1014.1 hPa 6.0 m/s 8.1 mm 10.7° 1016.2 hPa 5.3 m/s 2.6 mm 11.7° 1015.3 hPa 3.0 m/s 0.0 mm 10.3° 1016.3 hPa 7.6 m/s 4.0 mm 10.9° 1016.8 hPa 5.2 m/s 10.1° 1017.0 hPa 22.0 m/s 1.8 mm
07:00 10.5° 1015.2 hPa 5.4 m/s 4.7 mm 11.7° 1013.2 hPa 7.0 m/s 14.4 mm 10.7° 1015.2 hPa 5.0 m/s 1.6 mm 10.7° 1014.4 hPa 3.5 m/s 0.0 mm 10.2° 1015.5 hPa 8.5 m/s 5.4 mm 10.6° 1016.1 hPa 4.6 m/s 9.8° 1016.0 hPa 21.0 m/s 2.8 mm
10:00 11.0° 1015.3 hPa 5.5 m/s 6.2 mm 12.3° 1013.2 hPa 7.6 m/s 24.2 mm 11.1° 1015.7 hPa 4.9 m/s 3.1 mm 11.2° 1014.1 hPa 4.4 m/s 0.0 mm 10.8° 1015.5 hPa 7.9 m/s 4.6 mm 11.1° 1015.4 hPa 5.1 m/s 10.0° 1015.0 hPa 22.0 m/s 3.8 mm
13:00 11.9° 1013.7 hPa 6.7 m/s 6.6 mm 13.5° 1012.3 hPa 8.2 m/s 32.5 mm 12.0° 1014.2 hPa 6.5 m/s 1.3 mm 13.1° 1012.2 hPa 5.7 m/s 0.0 mm 11.4° 1013.9 hPa 8.5 m/s 4.6 mm 11.5° 1014.6 hPa 4.5 m/s 10.9° 1014.0 hPa 24.0 m/s 2.8 mm
16:00 12.1° 1011.9 hPa 6.8 m/s 7.0 mm 13.7° 1010.0 hPa 7.8 m/s 33.1 mm 12.1° 1012.6 hPa 6.9 m/s 1.1 mm 13.3° 1010.3 hPa 6.0 m/s 0.0 mm 11.5° 1012.1 hPa 8.0 m/s 3.4 mm 10.9° 1011.8 hPa 3.4 m/s 10.8° 1012.0 hPa 21.0 m/s 1.7 mm
19:00 11.6° 1010.3 hPa 3.9 m/s 8.3 mm 12.6° 1008.5 hPa 3.3 m/s 34.0 mm 11.8° 1011.5 hPa 3.2 m/s 1.4 mm 12.0° 1009.2 hPa 4.5 m/s 0.0 mm 11.4° 1010.1 hPa 4.7 m/s 2.3 mm 10.4° 1010.9 hPa 2.3 m/s 10.5° 1011.0 hPa 12.0 m/s 1.0 mm
22:00 11.1° 1007.9 hPa 2.8 m/s 2.5 mm 11.4° 1005.4 hPa 5.1 m/s 37.5 mm 10.8° 1008.8 hPa 1.0 m/s 0.3 mm 11.5° 1007.6 hPa 2.5 m/s 0.0 mm 11.3° 1007.8 hPa 3.9 m/s 0.5 mm 9.9° 1007.8 hPa 2.7 m/s 10.2° 1008.0 hPa 10.0 m/s 0.3 mm
 08:00     17:45    Daglengte: 9:45 Morgen
01:00 11.0° 1005.2 hPa 2.3 m/s 0.0 mm 12.0° 1000.2 hPa 3.9 m/s 51.1 mm 10.4° 1005.4 hPa 1.2 m/s 0.1 mm 11.2° 1006.0 hPa 1.6 m/s 0.0 mm 11.3° 1004.9 hPa 2.9 m/s 0.0 mm 9.5° 1003.7 hPa 3.8 m/s 9.4° 1004.0 hPa 17.0 m/s 4.1 mm
04:00 10.8° 1003.1 hPa 2.0 m/s 15.3 mm 13.5° 995.1 hPa 3.6 m/s 77.4 mm 10.2° 1003.4 hPa 0.6 m/s 1.1 mm 11.3° 1005.1 hPa 2.0 m/s 0.0 mm 10.8° 1003.0 hPa 2.4 m/s 2.6 mm 9.8° 1000.0 hPa 3.1 m/s 9.5° 1000.0 hPa 14.0 m/s 8.6 mm
07:00 10.6° 1005.0 hPa 2.7 m/s 14.4 mm 11.8° 1001.5 hPa 7.6 m/s 85.8 mm 9.8° 1004.6 hPa 0.6 m/s 2.6 mm 11.0° 1007.4 hPa 2.7 m/s 0.0 mm 10.9° 1005.0 hPa 3.1 m/s 2.8 mm 10.0° 1001.8 hPa 4.7 m/s 9.5° 1002.0 hPa 21.0 m/s 5.6 mm
10:00 10.9° 1009.3 hPa 3.0 m/s 18.6 mm 11.5° 1006.8 hPa 4.9 m/s 93.3 mm 10.9° 1009.3 hPa 2.9 m/s 4.4 mm 11.0° 1010.1 hPa 1.5 m/s 0.0 mm 11.1° 1009.2 hPa 5.0 m/s 4.9 mm 10.0° 1007.7 hPa 0.8 m/s 10.2° 1007.0 hPa 6.0 m/s 4.6 mm
13:00 11.4° 1010.3 hPa 2.2 m/s 13.0 mm 11.9° 1008.8 hPa 5.0 m/s 95.2 mm 12.1° 1010.1 hPa 1.3 m/s 0.2 mm 11.4° 1010.1 hPa 1.9 m/s 0.0 mm 11.2° 1010.7 hPa 3.7 m/s 0.9 mm 12.2° 1009.8 hPa 3.5 m/s 11.0° 1010.0 hPa 13.0 m/s 0.7 mm
16:00 11.8° 1010.5 hPa 5.8 m/s 13.3 mm 12.7° 1008.6 hPa 6.7 m/s 96.1 mm 11.6° 1010.6 hPa 4.3 m/s 0.1 mm 12.5° 1010.1 hPa 4.3 m/s 0.0 mm 11.4° 1010.7 hPa 6.6 m/s 0.7 mm 11.4° 1010.1 hPa 4.9 m/s 11.6° 1010.0 hPa 18.0 m/s 2.3 mm
19:00 10.5° 1009.1 hPa 3.6 m/s 0.0 mm 10.0° 1007.5 hPa 4.7 m/s 96.5 mm 10.7° 1008.9 hPa 2.3 m/s 0.2 mm 11.1° 1008.2 hPa 3.2 m/s 0.0 mm 10.6° 1009.8 hPa 6.1 m/s 1.0 mm 10.3° 1009.8 hPa 3.5 m/s 11.0° 1010.0 hPa 19.0 m/s 0.5 mm
22:00 10.3° 1005.6 hPa 4.9 m/s 0.0 mm 11.1° 1004.5 hPa 6.2 m/s 96.8 mm 10.2° 1004.8 hPa 2.4 m/s 0.0 mm 10.4° 1005.8 hPa 5.4 m/s 0.3 mm 9.2° 1007.0 hPa 3.4 m/s 10.0° 1007.0 hPa 20.0 m/s 0.8 mm
 08:01     17:44    Daglengte: 9:43 Donderdag 14 Nov
01:00 10.9° 1003.4 hPa 9.4 m/s 12.3 mm 11.5° 1001.9 hPa 8.7 m/s 96.8 mm 9.9° 1004.5 hPa 9.8 m/s 2.3 mm 11.0° 1003.5 hPa 10.4 m/s 0.8 mm 9.4° 1004.3 hPa 3.4 m/s 9.4° 1004.0 hPa 13.0 m/s 1.0 mm
04:00 7.9° 1002.8 hPa 6.0 m/s 23.0 mm 9.3° 999.8 hPa 6.0 m/s 110.0 mm 7.8° 1002.9 hPa 3.3 m/s 7.1 mm 7.1° 1003.4 hPa 8.1 m/s 8.0 mm 8.8° 1002.3 hPa 6.0 m/s 8.3° 1002.0 hPa 25.0 m/s 11.7 mm
07:00 7.4° 1001.3 hPa 6.6 m/s 23.5 mm 7.2° 999.4 hPa 7.5 m/s 135.0 mm 8.3° 1001.9 hPa 5.1 m/s 1.6 mm 7.0° 1001.4 hPa 7.2 m/s 1.8 mm 7.0° 1001.2 hPa 4.2 m/s 6.9° 1001.0 hPa 19.0 m/s 20.6 mm
10:00 8.8° 999.5 hPa 5.8 m/s 0.0 mm 5.6° 999.4 hPa 7.0 m/s 145.7 mm 9.2° 999.2 hPa 2.6 m/s 0.1 mm 9.1° 999.6 hPa 6.3 m/s 0.0 mm 7.1° 1001.9 hPa 4.1 m/s 5.9° 1002.0 hPa 25.0 m/s 7.3 mm
13:00 10.6° 996.8 hPa 7.2 m/s 16.9 mm 9.5° 996.4 hPa 5.9 m/s 150.3 mm 10.3° 996.0 hPa 6.8 m/s 0.1 mm 11.0° 997.3 hPa 7.8 m/s 0.0 mm 9.3° 999.8 hPa 2.9 m/s 7.6° 1000.0 hPa 15.0 m/s 3.6 mm
16:00 10.6° 994.7 hPa 5.4 m/s 44.0 mm 10.3° 992.6 hPa 6.1 m/s 151.2 mm 11.5° 993.5 hPa 6.3 m/s 0.1 mm 10.5° 996.1 hPa 4.7 m/s 0.6 mm 9.7° 997.2 hPa 1.3 m/s 9.7° 997.0 hPa 3.0 m/s 0.5 mm
19:00 8.0° 995.8 hPa 6.0 m/s 32.1 mm 7.3° 992.9 hPa 3.9 m/s 151.3 mm 9.4° 994.3 hPa 4.0 m/s 0.9 mm 7.8° 997.6 hPa 8.0 m/s 3.7 mm 7.7° 997.2 hPa 1.9 m/s 8.8° 997.0 hPa 6.0 m/s 0.0 mm
22:00 8.2° 997.8 hPa 7.8 m/s 54.5 mm 8.8° 994.2 hPa 5.5 m/s 156.9 mm 9.0° 996.5 hPa 6.9 m/s 3.3 mm 7.5° 999.7 hPa 8.9 m/s 5.9° 998.2 hPa 2.7 m/s 7.3° 998.0 hPa 8.0 m/s 1.3 mm
 08:02     17:43    Daglengte: 9:41 Vrijdag 15 Nov
01:00 7.6° 999.1 hPa 8.5 m/s 50.8 mm 7.6° 995.8 hPa 7.5 m/s 170.3 mm 8.3° 996.6 hPa 6.0 m/s 3.3 mm 7.3° 1001.7 hPa 9.9 m/s 5.7° 999.7 hPa 2.1 m/s 6.4° 1000.0 hPa 9.0 m/s 1.5 mm
04:00 7.1° 1000.7 hPa 9.5 m/s 30.3 mm 7.2° 1000.8 hPa 9.9 m/s 6.0° 1000.0 hPa 2.6 m/s 59.8 mm 6.8° 1000.0 hPa 12.0 m/s 0.7 mm
07:00 7.0° 1000.4 hPa 9.6 m/s 31.2 mm 7.1° 1000.4 hPa 9.9 m/s 5.7° 1000.2 hPa 2.9 m/s 60.7 mm 6.7° 1000.0 hPa 13.0 m/s 1.6 mm
10:00 7.7° 1000.9 hPa 8.5 m/s 30.7 mm 7.8° 1001.0 hPa 8.8 m/s 7.2° 1000.5 hPa 2.5 m/s 60.9 mm 7.3° 1001.0 hPa 11.0 m/s 0.5 mm
13:00 8.3° 1001.3 hPa 7.9 m/s 31.5 mm 8.4° 1001.5 hPa 7.8 m/s 7.9° 1000.5 hPa 3.8 m/s 61.6 mm 7.1° 1000.0 hPa 13.0 m/s 1.5 mm
16:00 8.3° 1003.5 hPa 7.6 m/s 33.8 mm 8.7° 1004.0 hPa 7.2 m/s 5.7° 1000.6 hPa 3.9 m/s 64.8 mm 5.6° 1001.0 hPa 16.0 m/s 2.8 mm
19:00 8.5° 1006.0 hPa 6.6 m/s 35.6 mm 9.0° 1006.4 hPa 6.6 m/s 5.8° 1003.6 hPa 2.6 m/s 68.1 mm 5.5° 1003.0 hPa 10.0 m/s 3.2 mm
22:00 8.0° 1007.2 hPa 6.5 m/s 36.0 mm 8.3° 1007.3 hPa 7.4 m/s 6.3° 1006.7 hPa 0.3 m/s 70.0 mm 6.0° 1006.0 hPa 2.0 m/s 2.0 mm
 08:04     17:42    Daglengte: 9:38 Zaterdag 16 Nov
01:00 7.5° 1008.3 hPa 7.7 m/s 70.2 mm 7.6° 1008.3 hPa 8.2 m/s 6.6° 1008.6 hPa 1.9 m/s 70.2 mm 7.1° 1008.0 hPa 7.0 m/s 0.0 mm
04:00 7.7° 1008.9 hPa 8.5 m/s 70.4 mm 7.8° 1008.9 hPa 8.4 m/s 5.8° 1009.0 hPa 3.2 m/s 70.4 mm 7.7° 1009.0 hPa 14.0 m/s 0.0 mm
07:00 7.9° 1009.4 hPa 8.9 m/s 40.7 mm 8.1° 1009.5 hPa 8.7 m/s 7.1° 1009.1 hPa 2.8 m/s 76.4 mm 6.9° 1009.0 hPa 17.0 m/s 5.0 mm
10:00 8.6° 1010.7 hPa 9.9 m/s 43.3 mm 8.8° 1010.8 hPa 9.4 m/s 6.5° 1010.6 hPa 4.4 m/s 80.6 mm 7.5° 1010.0 hPa 21.0 m/s 6.0 mm
13:00 9.4° 1011.7 hPa 10.7 m/s 42.5 mm 9.6° 1012.0 hPa 10.2 m/s 8.9° 1010.4 hPa 5.0 m/s 81.9 mm 7.6° 1010.0 hPa 22.0 m/s 3.0 mm
16:00 8.9° 1012.8 hPa 10.8 m/s 45.5 mm 9.1° 1013.2 hPa 10.2 m/s 7.3° 1010.1 hPa 4.7 m/s 86.0 mm 8.0° 1010.0 hPa 23.0 m/s 5.0 mm
19:00 8.6° 1014.0 hPa 11.0 m/s 45.5 mm 8.6° 1014.5 hPa 10.3 m/s 8.1° 1011.4 hPa 4.3 m/s 88.1 mm 8.6° 1011.0 hPa 26.0 m/s 3.0 mm
22:00 8.3° 1014.4 hPa 9.9 m/s 47.2 mm 8.3° 1014.8 hPa 9.1 m/s 8.6° 1012.3 hPa 4.6 m/s 91.3 mm 8.4° 1012.0 hPa 26.0 m/s 3.0 mm
 08:05     17:41    Daglengte: 9:36 Zondag 17 Nov
01:00 8.0° 1014.6 hPa 8.7 m/s 47.2 mm 8.0° 1015.1 hPa 7.8 m/s 8.0° 1011.9 hPa 4.6 m/s 92.5 mm 8.5° 1012.0 hPa 23.0 m/s 2.0 mm
04:00 7.8° 1013.1 hPa 7.7 m/s 92.7 mm 7.8° 1013.6 hPa 7.2 m/s 7.7° 1010.3 hPa 3.2 m/s 92.7 mm 8.8° 1010.0 hPa 18.0 m/s 0.0 mm
07:00 7.5° 1011.7 hPa 6.7 m/s 46.9 mm 7.5° 1012.1 hPa 6.6 m/s 6.9° 1009.1 hPa 3.0 m/s 92.8 mm 8.7° 1009.0 hPa 11.0 m/s 1.0 mm
10:00 9.3° 1009.4 hPa 6.8 m/s 92.8 mm 9.4° 1009.6 hPa 6.8 m/s 8.4° 1008.5 hPa 3.0 m/s 92.8 mm 9.0° 1008.0 hPa 11.0 m/s 0.0 mm
13:00 11.0° 1007.0 hPa 7.1 m/s 47.5 mm 11.4° 1007.1 hPa 6.9 m/s 8.3° 1006.2 hPa 3.4 m/s 93.9 mm 8.7° 1006.0 hPa 13.0 m/s 1.0 mm
16:00 9.8° 1005.2 hPa 6.4 m/s 53.1 mm 10.2° 1005.4 hPa 5.8 m/s 7.5° 1003.9 hPa 4.2 m/s 101.2 mm 7.5° 1004.0 hPa 17.0 m/s 5.0 mm
19:00 8.9° 1003.6 hPa 5.4 m/s 102.0 mm 9.0° 1003.7 hPa 4.6 m/s 8.4° 1003.0 hPa 4.0 m/s 102.0 mm 8.3° 1003.0 hPa 17.0 m/s 0.0 mm
22:00 8.9° 1003.3 hPa 5.6 m/s 53.0 mm 8.9° 1003.2 hPa 5.2 m/s 8.5° 1003.8 hPa 3.1 m/s 104.0 mm 8.8° 1004.0 hPa 13.0 m/s 2.0 mm
 08:06     17:41    Daglengte: 9:35 Maandag 18 Nov
01:00 8.9° 1002.8 hPa 6.3 m/s 55.2 mm 8.9° 1002.6 hPa 5.7 m/s 8.9° 1004.4 hPa 3.3 m/s 107.5 mm 9.1° 1004.0 hPa 17.0 m/s 3.0 mm
04:00 8.8° 1002.8 hPa 5.8 m/s 54.7 mm 8.9° 1002.5 hPa 4.8 m/s 8.6° 1004.2 hPa 3.6 m/s 108.4 mm 9.0° 1004.0 hPa 20.0 m/s 1.0 mm
07:00 8.7° 1003.0 hPa 4.6 m/s 108.4 mm 8.8° 1002.5 hPa 3.8 m/s 7.0° 1005.6 hPa 3.4 m/s 108.4 mm 9.3° 1006.0 hPa 15.0 m/s 0.0 mm
10:00 9.5° 1004.3 hPa 2.8 m/s 54.8 mm 9.6° 1003.8 hPa 2.3 m/s 8.4° 1007.1 hPa 2.1 m/s 108.5 mm 9.9° 1007.0 hPa 9.0 m/s 1.0 mm
13:00 10.4° 1005.5 hPa 1.5 m/s 108.5 mm 10.3° 1005.1 hPa 0.9 m/s 11.2° 1007.7 hPa 2.0 m/s 108.5 mm 11.1° 1008.0 hPa 8.0 m/s 0.0 mm
16:00 9.7° 1007.2 hPa 2.8 m/s 108.5 mm 9.4° 1007.0 hPa 2.1 m/s 11.0° 1008.1 hPa 2.5 m/s 108.5 mm 11.8° 1008.0 hPa 12.0 m/s 0.0 mm
19:00 8.7° 1009.1 hPa 3.8 m/s 108.8 mm 8.5° 1009.0 hPa 3.3 m/s 9.2° 1009.9 hPa 2.0 m/s 108.8 mm 10.2° 1010.0 hPa 11.0 m/s 0.0 mm
22:00 8.7° 1010.3 hPa 4.3 m/s 55.7 mm 8.6° 1010.1 hPa 3.9 m/s 9.3° 1011.4 hPa 2.1 m/s 110.5 mm 9.1° 1011.0 hPa 11.0 m/s 1.0 mm
 08:07     17:40    Daglengte: 9:33 Dinsdag 19 Nov
01:00 8.7° 1011.4 hPa 4.4 m/s 110.6 mm 8.7° 1011.3 hPa 4.6 m/s 8.7° 1012.2 hPa 2.1 m/s 110.6 mm
07:00 7.9° 1012.9 hPa 4.7 m/s 110.6 mm 8.0° 1012.9 hPa 4.8 m/s 6.5° 1013.1 hPa 3.2 m/s 110.6 mm
13:00 11.3° 1014.3 hPa 4.7 m/s 111.5 mm 11.4° 1014.2 hPa 4.9 m/s 9.6° 1015.9 hPa 2.6 m/s 111.5 mm
19:00 9.6° 1014.6 hPa 1.5 m/s 111.9 mm 9.6° 1014.4 hPa 1.6 m/s 9.2° 1016.8 hPa 1.0 m/s 111.9 mm
 08:09     17:39    Daglengte: 9:30 Woensdag 20 Nov
01:00 7.5° 1014.5 hPa 4.4 m/s 111.9 mm 7.4° 1014.4 hPa 4.5 m/s 8.1° 1015.9 hPa 3.5 m/s 111.9 mm
07:00 7.2° 1012.9 hPa 5.1 m/s 111.9 mm 7.0° 1012.8 hPa 5.1 m/s 9.3° 1013.4 hPa 5.4 m/s 111.9 mm
13:00 12.2° 1011.1 hPa 5.6 m/s 111.9 mm 12.1° 1011.0 hPa 5.6 m/s 12.8° 1012.5 hPa 5.0 m/s 111.9 mm
19:00 10.3° 1009.4 hPa 5.5 m/s 111.9 mm 10.4° 1009.2 hPa 5.6 m/s 9.7° 1011.5 hPa 4.2 m/s 111.9 mm
 08:10     17:38    Daglengte: 9:28 Donderdag 21 Nov
01:00 10.1° 1008.2 hPa 7.1 m/s 111.9 mm 10.2° 1008.0 hPa 7.3 m/s 9.1° 1010.2 hPa 4.4 m/s 111.9 mm
07:00 9.8° 1006.6 hPa 8.0 m/s 111.9 mm 9.7° 1006.7 hPa 8.3 m/s 10.7° 1005.7 hPa 4.9 m/s 111.9 mm
13:00 13.3° 1006.1 hPa 7.8 m/s 112.2 mm 13.3° 1006.8 hPa 7.9 m/s 13.7° 998.6 hPa 7.1 m/s 112.2 mm
19:00 11.6° 1007.1 hPa 3.3 m/s 0.5 mm
 08:11     17:38    Daglengte: 9:27 Vrijdag 22 Nov
01:00 10.5° 1007.4 hPa 4.6 m/s 0.7 mm
07:00 10.1° 1007.2 hPa 3.9 m/s 1.0 mm
13:00 14.1° 1007.9 hPa 4.4 m/s 0.6 mm
19:00 11.8° 1008.6 hPa 3.2 m/s 0.6 mm
 08:12     17:37    Daglengte: 9:25 Zaterdag 23 Nov
01:00 10.4° 1010.3 hPa 3.9 m/s 1.0 mm
07:00 9.7° 1011.0 hPa 3.8 m/s 0.7 mm
13:00 14.3° 1011.8 hPa 3.3 m/s 0.4 mm
19:00 11.8° 1012.3 hPa 2.0 m/s 1.0 mm
 08:14     17:36    Daglengte: 9:22 Zondag 24 Nov
01:00 10.8° 1012.9 hPa 3.0 m/s 1.1 mm
07:00 10.3° 1012.2 hPa 3.3 m/s 0.6 mm
13:00 14.6° 1011.9 hPa 3.5 m/s 0.4 mm
19:00 12.3° 1011.4 hPa 2.0 m/s 0.9 mm
 08:15     17:36    Daglengte: 9:21 Maandag 25 Nov
01:00 11.2° 1012.1 hPa 2.6 m/s 1.9 mm
07:00 10.5° 1012.2 hPa 2.7 m/s 1.3 mm
13:00 14.1° 1013.2 hPa 2.5 m/s 0.6 mm
19:00 11.9° 1013.9 hPa 1.0 m/s 0.8 mm
 08:16     17:35    Daglengte: 9:19 Dinsdag 26 Nov
01:00 10.8° 1014.4 hPa 2.2 m/s 1.0 mm
07:00 10.3° 1013.8 hPa 2.4 m/s 1.5 mm
13:00 14.0° 1014.2 hPa 2.1 m/s 1.2 mm
19:00 11.4° 1014.5 hPa 0.6 m/s 0.6 mm
FMI Hirlam - 7.5 km EWN WRFDA - 12 km DWD ICON - 7 km GFS - 25 km Basiskaart






























































Updatetijd (Europe/Amsterdam) Resolutie Lengte Stap
FMI Hirlam 00:15, 06:15, 12:15, 18:15 7.5 km 49h 1h
EWN WRFDA 20:45, 02:45, 08:45, 14:45 12 km 73h 1h
DWD ICON 22:45, 04:45, 10:45, 16:45 7 km 75h 1h
GFS 19:30, 01:30, 07:30, 13:30 25 km 237h 3h
30+ mm
25-30 mm
20-25 mm
15-20 mm
10-15 mm
6-10 mm
4-6 mm
2-4 mm
1-2 mm
0.5-1 mm
0.2-0.5 mm
0.1-0.2 mm
30+ mm
25-30 mm
20-25 mm
15-20 mm
10-15 mm
6-10 mm
4-6 mm
2-4 mm
1-2 mm
0.5-1 mm
0.2-0.5 mm
0.1-0.2 mm
Sneeuwval
Natte sneeuw
Hagel
Vorst
30+ mm
25-30 mm
20-25 mm
15-20 mm
10-15 mm
6-10 mm
4-6 mm
2-4 mm
1-2 mm
0.5-1 mm
0.2-0.5 mm
0.1-0.2 mm
Sneeuwval
Natte sneeuw
Hagel
Vorst
Onweer
50 mm
40 mm
30 mm
26 mm
22 mm
18 mm
14 mm
10 mm
9 mm
8 mm
7 mm
6 mm
5 mm
4.5 mm
4 mm
3.5 mm
3 mm
2.5 mm
2 mm
1.5 mm
1 mm
0.8 mm
0.6 mm
0.4 mm
0.2 mm
0.05 mm
35°
30°
25°
20°
15°
10°
-5°
-10°
-15°
-20°
-25°
-30°
-35°
120> km/h
105 km/h
90 km/h
75 km/h
60 km/h
50 km/h
40 km/h
30 km/h
20 km/h
10 km/h
0 km/h
2600 J/kg
2400 J/kg
2200 J/kg
2000 J/kg
1800 J/kg
1600 J/kg
1400 J/kg
1200 J/kg
1000 J/kg
800 J/kg
600 J/kg
400 J/kg
200 J/kg
70 dBZ
65 dBZ
60 dBZ
55 dBZ
50 dBZ
45 dBZ
40 dBZ
35 dBZ
30 dBZ
25 dBZ
20 dBZ
15 dBZ
10 dBZ
5 dBZ
-1 K
-2 K
-3 K
-4 K
-5 K
-6 K
-7 K
-8 K
-9 K
950 m²/s²
900 m²/s²
850 m²/s²
800 m²/s²
750 m²/s²
700 m²/s²
650 m²/s²
600 m²/s²
550 m²/s²
500 m²/s²
450 m²/s²
400 m²/s²
350 m²/s²
300 m²/s²
250 m²/s²
200 m²/s²
150 m²/s²
100 m²/s²
46 m/s
44 m/s
42 m/s
40 m/s
38 m/s
36 m/s
34 m/s
32 m/s
30 m/s
28 m/s
26 m/s